Location: Pasarilla del Rebollar
(40.6790°N, 5.0062°W)
Time: 11:38:29
(UTC+00:00)

CZ-2D R/B - Pass Details

Date: 22 April 2026
Orbit: 789 x 841 km, 98.9° (Epoch: 15 May)

Event Time Altitude Azimuth Distance (km) Brightness Sun altitude
Rises 03:56:14 0° 4° (N) 3,312 5.9 -17.1°
Reaches altitude 10° 03:58:42 10° 356° (N) 2,385 4.9 -16.7°
Maximum altitude 04:03:27 36° 292° (WNW) 1,269 2.8 -15.9°
Enters shadow 04:05:50 24° 246° (WSW) 1,625 3.1 -15.6°
